Almeria, Spain

9:56 AM CET en Enero 24, 2019 (GMT +0100)
Almeria

Tiempo Historia de LEAM - Enero, 2019

Change the Weather History Date:

Viernes, Enero 11, 2019

  Actual Average Record
Temperature  
Temperatura media 50 ° F -  
Temperatura máxima 59 ° F 59 ° F 68 ° F (1998)
Temperatura mínima 42 ° F 46 ° F 42 ° F (2003)
Degree Days  
Grados día de calefacción 14    
Moisture  
Punto de rocío 31 ° F    
Average Humidity 48    
Maximum Humidity 71    
Minimum Humidity 20    
Precipitación  
Precipitación 0.00 pul 0.03 pul - ()
Presión al nivel del mar  
Presión al nivel del mar 30.23 pul    
Viento  
Velocidad del viento 10 mph ()    
Velocidad máxima del viento 17 mph    
Max Gust Speed -    
Visibilidad 6.2 Millas    
Eventos      
Averages and records for this station are not official NWS values.
T = Trace of Precipitation, MM = Missing Value Source: Averaged Metar Reports

Daily Weather History Graph

Daily Weather History Graph

Search for Another Location

Airport or City:

Astronomía

Jan. 11, 2019 Salida Puesta
Hora real 8:22 AM CET 6:12 PM CET
Crepúsculo civil 7:53 AM CET 6:40 PM CET
Crepúsculo náutico 7:21 AM CET 7:12 PM CET
Crepúsculo astronómico 6:50 AM CET 7:44 PM CET
Luna 11:38 AM CET (1/11) 11:14 PM CET (1/11)
Horas de luz 10h 46m
Horas de luz
9h 49m
Creciente, 24% of the Moon is Illuminated
Ene 11
Creciente
Ene 14
Cuarto creciente
Ene 21
Luna llena
Ene 27
Cuarto menguante
Feb 4
Nueva

Hourly Weather History & Observations

Hora (CET) Temp. Vientos helados Punto de rocío Humedad Presión Visibilidad Wind Dir Velocidad del viento Velocidad de ráfagas Precip Eventos Condiciones
12:00 AM 47 ° F - 38 ° F 60% 30.16 pul - NNO 10.4 mph - -  
12:00 AM 46.4 ° F 41.9 ° F 37.4 ° F 71% 30.15 pul 6.2 mi NNO 9.2 mph - N/A   Desconocido
12:30 AM 46.4 ° F 41.5 ° F 35.6 ° F 66% 30.15 pul 6.2 mi NNO 10.4 mph - N/A   Desconocido
1:00 AM 46 ° F - 36 ° F 57% 30.16 pul - NNO 10.4 mph - -  
1:00 AM 46.4 ° F 41.5 ° F 35.6 ° F 66% 30.15 pul 6.2 mi NNO 10.4 mph - N/A   Desconocido
1:30 AM 44.6 ° F 39.7 ° F 33.8 ° F 66% 30.15 pul 6.2 mi NO 9.2 mph - N/A   Desconocido
2:00 AM 45 ° F - 35 ° F 58% 30.16 pul - NNO 12.7 mph - -  
2:00 AM 44.6 ° F 38.4 ° F 33.8 ° F 66% 30.15 pul 6.2 mi NNO 12.7 mph - N/A   Desconocido
2:30 AM 44.6 ° F 38.4 ° F 33.8 ° F 66% 30.15 pul 6.2 mi NNO 12.7 mph - N/A   Desconocido
3:00 AM 45 ° F - 33 ° F 52% 30.17 pul - NNO 13.8 mph - -  
3:00 AM 44.6 ° F 38.4 ° F 32.0 ° F 61% 30.15 pul 6.2 mi NNO 12.7 mph - N/A   Muy nublado
3:30 AM 44.6 ° F 38.1 ° F 30.2 ° F 57% 30.15 pul 6.2 mi NNO 13.8 mph - N/A   Parcialmente nublado
4:00 AM 44.6 ° F 38.4 ° F 28.4 ° F 53% 30.15 pul 6.2 mi NNO 12.7 mph - N/A   Desconocido
4:30 AM 44.6 ° F 38.4 ° F 28.4 ° F 53% 30.15 pul 6.2 mi NNO 12.7 mph - N/A   Desconocido
5:00 AM 42.8 ° F 36.2 ° F 26.6 ° F 53% 30.15 pul - NNO 12.7 mph - N/A   Despejado
5:30 AM 42.8 ° F 36.2 ° F 26.6 ° F 53% 30.15 pul - NNO 12.7 mph - N/A   Despejado
6:00 AM 43 ° F - 27 ° F 40% 30.17 pul - NNO 13.8 mph - -  
6:00 AM 42.8 ° F 35.8 ° F 26.6 ° F 53% 30.15 pul 6.2 mi NNO 13.8 mph - N/A   Parcialmente nublado
6:30 AM 42.8 ° F 35.8 ° F 26.6 ° F 53% 30.15 pul 6.2 mi NNO 13.8 mph - N/A   Parcialmente nublado
7:00 AM 42 ° F - 26 ° F 40% 30.18 pul 31 mi NNO 17.3 mph - -   Nubes dispersas
7:00 AM 42.8 ° F 35.1 ° F 24.8 ° F 49% 30.18 pul - NNO 16.1 mph - N/A   Despejado
7:30 AM 42.8 ° F 35.4 ° F 24.8 ° F 49% 30.18 pul - NNO 15.0 mph - N/A   Despejado
8:00 AM 42.8 ° F 36.6 ° F 24.8 ° F 49% 30.18 pul 6.2 mi NNO 11.5 mph - N/A   Parcialmente nublado
8:30 AM 42.8 ° F 35.8 ° F 24.8 ° F 49% 30.18 pul 6.2 mi NO 13.8 mph - N/A   Parcialmente nublado
9:00 AM 42 ° F - 26 ° F 40% 30.22 pul - NNO 16.1 mph - -  
9:00 AM 42.8 ° F 35.1 ° F 24.8 ° F 49% 30.21 pul 6.2 mi NNO 16.1 mph - N/A   Parcialmente nublado
9:30 AM 42.8 ° F 35.4 ° F 24.8 ° F 49% 30.21 pul 6.2 mi NNO 15.0 mph - N/A   Parcialmente nublado
10:00 AM 46 ° F - 26 ° F 33% 30.25 pul 31 mi NO 16.1 mph - -   Nubes dispersas
10:00 AM 46.4 ° F 40.1 ° F 24.8 ° F 43% 30.24 pul 6.2 mi NO 15.0 mph - N/A   Parcialmente nublado
10:30 AM 48.2 ° F - 26.6 ° F 43% 30.24 pul 6.2 mi NO 12.7 mph - N/A   Parcialmente nublado
11:00 AM 51 ° F - 27 ° F 27% 30.28 pul - NO 12.7 mph - -  
11:00 AM 51.8 ° F - 26.6 ° F 38% 30.27 pul 6.2 mi NO 11.5 mph - N/A   Parcialmente nublado
11:30 AM 53.6 ° F - 26.6 ° F 35% 30.27 pul 6.2 mi NO 9.2 mph - N/A   Parcialmente nublado
12:00 PM 56 ° F - 26 ° F 20% 30.27 pul - NO 4.6 mph - -  
12:00 PM 55.4 ° F - 26.6 ° F 33% 30.27 pul 6.2 mi ONO 4.6 mph - N/A   Parcialmente nublado
12:30 PM 57.2 ° F - 26.6 ° F 31% 30.24 pul 6.2 mi Variable 4.6 mph - N/A   Parcialmente nublado
1:00 PM 58 ° F - 29 ° F 22% 30.26 pul 31 mi SSO 5.8 mph - -   Nubes dispersas
1:00 PM 57.2 ° F - 28.4 ° F 33% 30.24 pul 6.2 mi SSO 4.6 mph - N/A   Parcialmente nublado
1:30 PM 57.2 ° F - 28.4 ° F 33% 30.24 pul 6.2 mi Sur 5.8 mph - N/A   Parcialmente nublado
2:00 PM 59 ° F - 31 ° F 22% 30.25 pul - Sur 9.2 mph - -  
2:00 PM 57.2 ° F - 30.2 ° F 36% 30.24 pul 6.2 mi Sur 8.1 mph - N/A   Parcialmente nublado
2:30 PM 59.0 ° F - 28.4 ° F 31% 30.24 pul 6.2 mi Sur 8.1 mph - N/A   Parcialmente nublado
3:00 PM 57.2 ° F - 30.2 ° F 36% 30.24 pul 6.2 mi Sur 9.2 mph - N/A   Parcialmente nublado
3:30 PM 57.2 ° F - 35.6 ° F 44% 30.24 pul 6.2 mi SSE 9.2 mph - N/A   Parcialmente nublado
4:00 PM 58 ° F - 34 ° F 29% 30.27 pul 31 mi SE 9.2 mph - -   Nubes dispersas
4:00 PM 57.2 ° F - 33.8 ° F 41% 30.24 pul 6.2 mi SSE 9.2 mph - N/A   Parcialmente nublado
4:30 PM 57.2 ° F - 35.6 ° F 44% 30.24 pul 6.2 mi SSE 8.1 mph - N/A   Parcialmente nublado
5:00 PM 57.2 ° F - 35.6 ° F 44% 30.27 pul 6.2 mi SE 6.9 mph - N/A   Parcialmente nublado
5:30 PM 55.4 ° F - 33.8 ° F 44% 30.27 pul 6.2 mi SE 5.8 mph - N/A   Parcialmente nublado
6:00 PM 54 ° F - 35 ° F 36% 30.29 pul - SSE 5.8 mph - -  
6:00 PM 53.6 ° F - 35.6 ° F 51% 30.27 pul 6.2 mi SSE 4.6 mph - N/A   Parcialmente nublado
6:30 PM 51.8 ° F - 33.8 ° F 50% 30.30 pul 6.2 mi Variable 1.2 mph - N/A   Parcialmente nublado
7:00 PM 50 ° F - 35 ° F 45% 30.31 pul 31 mi Norte 2.3 mph - -   Nubes dispersas
7:00 PM 50.0 ° F - 35.6 ° F 58% 30.30 pul 6.2 mi Variable 2.3 mph - N/A   Parcialmente nublado
7:30 PM 50.0 ° F - 33.8 ° F 54% 30.30 pul 6.2 mi NNE 4.6 mph - N/A   Parcialmente nublado
8:00 PM 49 ° F - 34 ° F 44% 30.32 pul - Norte 6.9 mph - -  
8:00 PM 50.0 ° F - 33.8 ° F 54% 30.30 pul 6.2 mi Norte 5.8 mph - N/A   Parcialmente nublado
8:30 PM 48.2 ° F - 33.8 ° F 58% 30.30 pul 6.2 mi Norte 5.8 mph - N/A   Parcialmente nublado
9:00 PM 47 ° F - 34 ° F 50% 30.33 pul - Norte 8.1 mph - -  
9:00 PM 48.2 ° F - 33.8 ° F 58% 30.30 pul 6.2 mi Norte 6.9 mph - N/A   Parcialmente nublado
9:30 PM 48.2 ° F - 33.8 ° F 58% 30.33 pul 6.2 mi Norte 6.9 mph - N/A   Parcialmente nublado
10:00 PM 46 ° F - 35 ° F 54% 30.34 pul 31 mi Norte 6.9 mph - -   Nubes dispersas
10:00 PM 46.4 ° F 43.5 ° F 33.8 ° F 62% 30.33 pul 6.2 mi Norte 5.8 mph - N/A   Parcialmente nublado
10:30 PM 46.4 ° F 42.4 ° F 35.6 ° F 66% 30.33 pul - NNO 8.1 mph - N/A   Despejado
11:00 PM 46 ° F - 35 ° F 55% 30.35 pul - NNO 8.1 mph - -  
11:00 PM 46.4 ° F 42.4 ° F 33.8 ° F 62% 30.33 pul 6.2 mi NNO 8.1 mph - N/A   Desconocido
11:30 PM 46.4 ° F 41.5 ° F 32.0 ° F 57% 30.33 pul 6.2 mi NNO 10.4 mph - N/A   Desconocido